Weather History for Charlottesville, VA

Change the Weather History Date:

Monday, October 14, 2013

  Actual Average Record
Temperature  
Mean Temperature 61 °F 56 °F  
Max Temperature 69 °F 68 °F 94 °F (1954)
Min Temperature 53 °F 45 °F 29 °F (1988)
Degree Days  
Heating Degree Days 4 9  
Month to date heating degree days 48 99  
Since 1 July heating degree days 123 157  
Cooling Degree Days 0 0  
Month to date cooling degree days 37 12  
Year to date cooling degree days 1145 1033  
Growing Degree Days 10 (Base 50)    
Moisture  
Dew Point 55 °F    
Average Humidity 82    
Maximum Humidity 100    
Minimum Humidity 63    
Precipitation  
Precipitation 0.00 in 0.10 in 1.43 in (2001)
Month to date precipitation 3.14 1.52  
Year to date precipitation 37.31 34.14  
Sea Level Pressure  
Sea Level Pressure 30.28 in    
Wind  
Wind Speed 4 mph (NNE)    
Max Wind Speed 9 mph    
Max Gust Speed 13 mph    
Visibility 8 miles    
Events Fog    
T = Trace of Precipitation, MM = Missing Value Source: NWS Daily Summary

Daily Weather History Graph

Daily Weather History Graph

Search for Another Location

Airport:

Trip Planner

Search our weather history database for the weather conditions in past years. The results will help you decide how hot, cold, wet, or windy it might be!

Date:

Astronomy

Oct. 14, 2013 Rise Set
Actual Time 7:21 AM EDT 6:37 PM EDT
Civil Twilight 6:55 AM EDT 7:03 PM EDT
Nautical Twilight 6:24 AM EDT 7:34 PM EDT
Astronomical Twilight 5:54 AM EDT 8:04 PM EDT
Moon 4:02 PM EDT (10/14) 2:40 AM EDT (10/14)
Length of Visible Light 12h 08m
Length of Day
11h 15m
Waxing Gibbous, 79% of the Moon is Illuminated
Oct 14
Waxing Gibbous
Oct 18
Full
Oct 26
Last Quarter
Nov 3
New
Nov 10
First Quarter

Hourly Weather History & Observations

Time (EDT) Temp. Dew Point Humidity Pressure Visibility Wind Dir Wind Speed Gust Speed Precip Events Conditions
12:53 AM 59.0 °F 55.9 °F 90% 30.29 in 10.0 mi NNE 8.1 mph - N/A   Overcast
1:41 AM 57.2 °F 55.4 °F 94% 30.30 in 10.0 mi North 4.6 mph - N/A   Overcast
1:53 AM 57.9 °F 55.9 °F 93% 30.29 in 10.0 mi NNE 5.8 mph - N/A   Overcast
2:41 AM 57.2 °F 55.4 °F 94% 30.30 in 8.0 mi NNE 5.8 mph - N/A   Overcast
2:53 AM 57.9 °F 55.0 °F 90% 30.29 in 8.0 mi NNE 4.6 mph - N/A   Overcast
3:14 AM 57.2 °F 55.4 °F 94% 30.30 in 7.0 mi North 4.6 mph - N/A   Overcast
3:45 AM 57.2 °F 55.4 °F 94% 30.30 in 8.0 mi NNE 4.6 mph - N/A   Overcast
3:53 AM 57.9 °F 55.0 °F 90% 30.29 in 10.0 mi North 4.6 mph - N/A   Overcast
4:19 AM 57.2 °F 55.4 °F 94% 30.30 in 10.0 mi North 5.8 mph - N/A   Overcast
4:53 AM 57.0 °F 55.0 °F 93% 30.30 in 10.0 mi NNE 5.8 mph - N/A   Overcast
5:22 AM 57.2 °F 55.4 °F 94% 30.30 in 10.0 mi NE 6.9 mph - N/A   Overcast
5:42 AM 57.2 °F 55.4 °F 94% 30.30 in 10.0 mi NE 9.2 mph - N/A   Overcast
5:53 AM 57.0 °F 55.0 °F 93% 30.30 in 10.0 mi NE 6.9 mph - N/A   Overcast
6:15 AM 57.2 °F 55.4 °F 94% 30.30 in 10.0 mi NE 8.1 mph - N/A   Overcast
6:43 AM 57.2 °F 55.4 °F 94% 30.31 in 10.0 mi NNE 5.8 mph - N/A   Overcast
6:53 AM 57.0 °F 55.0 °F 93% 30.30 in 10.0 mi NE 6.9 mph - N/A   Overcast
7:53 AM 57.0 °F 55.0 °F 93% 30.30 in 9.0 mi NE 5.8 mph - N/A   Overcast
8:16 AM 57.2 °F 55.4 °F 94% 30.31 in 10.0 mi NE 6.9 mph - N/A   Overcast
8:50 AM 57.2 °F 53.6 °F 88% 30.33 in 8.0 mi NE 8.1 mph - N/A   Overcast
8:53 AM 57.0 °F 55.0 °F 93% 30.32 in 8.0 mi NE 8.1 mph - N/A   Overcast
9:53 AM 57.9 °F 55.0 °F 90% 30.33 in 10.0 mi NE 9.2 mph - N/A   Overcast
10:53 AM 59.0 °F 55.0 °F 87% 30.32 in 10.0 mi ENE 6.9 mph - N/A   Overcast
11:15 AM 60.8 °F 53.6 °F 77% 30.32 in 10.0 mi ENE 8.1 mph - N/A   Overcast
11:53 AM 62.1 °F 54.0 °F 75% 30.30 in 10.0 mi NE 5.8 mph - N/A   Overcast
12:53 PM 62.1 °F 54.0 °F 75% 30.28 in 10.0 mi North 4.6 mph - N/A   Overcast
1:53 PM 64.0 °F 55.0 °F 73% 30.26 in 10.0 mi NNE 4.6 mph - N/A   Overcast
2:53 PM 66.0 °F 55.9 °F 70% 30.24 in 10.0 mi NNW 4.6 mph - N/A   Mostly Cloudy
3:38 PM 66.2 °F 55.4 °F 68% 30.24 in 10.0 mi NNE 6.9 mph - N/A   Scattered Clouds
3:53 PM 66.9 °F 55.9 °F 68% 30.23 in 10.0 mi Variable 3.5 mph - N/A   Scattered Clouds
4:53 PM 66.0 °F 53.1 °F 63% 30.22 in 10.0 mi Calm Calm - N/A   Scattered Clouds
5:53 PM 64.9 °F 54.0 °F 68% 30.22 in 10.0 mi Calm Calm - N/A   Scattered Clouds
6:53 PM 62.1 °F 55.9 °F 80% 30.24 in 10.0 mi Calm Calm - N/A   Clear
7:53 PM 59.0 °F 55.9 °F 90% 30.25 in 10.0 mi Calm Calm - N/A   Clear
8:53 PM 57.0 °F 55.9 °F 96% 30.25 in 10.0 mi Calm Calm - N/A   Clear
9:53 PM 55.9 °F 55.0 °F 97% 30.27 in 7.0 mi Calm Calm - N/A   Clear
10:53 PM 55.0 °F 55.0 °F 100% 30.26 in 6.0 mi Calm Calm - N/A   Clear
10:58 PM 53.6 °F 53.6 °F 100% 30.26 in 1.8 mi Calm Calm - N/A   Clear
11:04 PM 55.4 °F 53.6 °F 94% 30.26 in 3.0 mi Calm Calm - N/A   Clear
11:16 PM 55.4 °F 53.6 °F 94% 30.25 in 1.8 mi Calm Calm - N/A   Clear
11:28 PM 55.4 °F 53.6 °F 94% 30.24 in 4.0 mi Calm Calm - N/A   Clear
11:49 PM 55.4 °F 53.6 °F 94% 30.24 in 1.8 mi Calm Calm - N/A   Clear
11:53 PM 54.0 °F 53.1 °F 97% 30.23 in 1.0 mi Calm Calm - N/A   Clear
11:59 PM 53.6 °F 53.6 °F 100% 30.24 in 0.5 mi Calm Calm - N/A Fog Fog